Accueil
METAR-TAF:

METAR-TAF

Aéroports :

Morlaix, France

Aéroport de Morlaix Ploujean

latitude: 48-36N, longitude: 3-49W, altitude: 84 m

Observation

Le bulletin a été fait il y a 31 minutes, à 17:00 UTC
Vent 7 kt de ouest/sud-ouest
Température 20°C
Humidité 78%
Pression 1016 hPa
Visibilité 10 km ou plus
Nuages fragmentés à une hauteur de 2100 ft
Ciel couvert à une hauteur de 2700 ft

METAR: LFRU 251700Z AUTO 25007KT 9999 BKN021 OVC027 20/16 Q1016

Heure: 19:31 (17:31 UTC)


TAF: absent

Observations et prévisions météorologiques de plus de 4000 aéroports (messages METAR et TAF).

Les stations disponibles sont représentées par des disques jaunes et rouges sur la carte.

Passer la souris dessus pour voir le nom de la station.

Cliquer dessus pour voir les observations et prévisions météorologiques.

Pour changer de carte: cliquez sur les boutons verts avec une croix noire pour zoomer, sur le bouton vert avec un tiret pour effectuer un zoom arrière, ou sur les flèches vertes pour les cartes adjacentes.


METAR-TAF: